Time,TemperatureF,DewpointF,PressureIn,WindDirection,WindDirectionDegrees,WindSpeedMPH,WindSpeedGustMPH,Humidity,HourlyPrecipIn,Conditions,Clouds,dailyrainin,SoftwareType,DateUTC
2013-05-22 00:01:00,51.0,-99.9,-100.00,North,-999,-999.0,-999.0,-999,0.00,,,-99.99,,2013-05-22 06:01:00,
2013-05-22 00:12:00,51.0,-99.9,-100.00,North,-999,-999.0,-999.0,-999,0.00,,,-99.99,,2013-05-22 06:12:00,
2013-05-22 00:42:00,47.0,-99.9,-100.00,North,-999,-999.0,-999.0,-999,0.00,,,-99.99,,2013-05-22 06:42:00,
2013-05-22 00:52:00,47.0,-99.9,-100.00,North,-999,-999.0,-999.0,-999,0.00,,,-99.99,,2013-05-22 06:52:00,
2013-05-22 01:02:00,47.0,-99.9,-100.00,North,-999,-999.0,-999.0,-999,0.00,,,-99.99,,2013-05-22 07:02:00,
2013-05-22 01:11:00,47.0,-99.9,-100.00,North,-999,-999.0,-999.0,-999,0.00,,,-99.99,,2013-05-22 07:11:00,
2013-05-22 01:42:00,44.0,-99.9,-100.00,North,-999,-999.0,-999.0,-999,0.00,,,-99.99,,2013-05-22 07:42:00,
2013-05-22 01:53:00,44.0,-99.9,-100.00,North,-999,-999.0,-999.0,-999,0.00,,,-99.99,,2013-05-22 07:53:00,
2013-05-22 02:02:00,44.0,-99.9,-100.00,North,-999,-999.0,-999.0,-999,0.00,,,-99.99,,2013-05-22 08:02:00,
2013-05-22 02:11:00,44.0,-99.9,-100.00,North,-999,-999.0,-999.0,-999,0.00,,,-99.99,,2013-05-22 08:11:00,
2013-05-22 02:42:00,42.0,-99.9,-100.00,North,-999,-999.0,-999.0,-999,0.00,,,-99.99,,2013-05-22 08:42:00,
2013-05-22 02:52:00,42.0,-99.9,-100.00,North,-999,-999.0,-999.0,-999,0.00,,,-99.99,,2013-05-22 08:52:00,
2013-05-22 03:01:00,42.0,-99.9,-100.00,North,-999,-999.0,-999.0,-999,0.00,,,-99.99,,2013-05-22 09:01:00,
2013-05-22 03:12:00,42.0,-99.9,-100.00,North,-999,-999.0,-999.0,-999,0.00,,,-99.99,,2013-05-22 09:12:00,
2013-05-22 04:42:00,40.0,-99.9,-100.00,North,-999,-999.0,-999.0,-999,0.00,,,0.00,,2013-05-22 10:42:00,
2013-05-22 04:53:00,40.0,-99.9,-100.00,North,-999,-999.0,-999.0,-999,0.00,,,0.00,,2013-05-22 10:53:00,
2013-05-22 05:02:00,40.0,-99.9,-100.00,North,-999,-999.0,-999.0,-999,0.00,,,0.00,,2013-05-22 11:02:00,
2013-05-22 05:12:00,40.0,-99.9,-100.00,North,-999,-999.0,-999.0,-999,0.00,,,0.00,,2013-05-22 11:12:00,
2013-05-22 05:42:00,39.0,-99.9,-100.00,North,-999,-999.0,-999.0,-999,0.00,,,0.00,,2013-05-22 11:42:00,
2013-05-22 05:53:00,39.0,-99.9,-100.00,North,-999,-999.0,-999.0,-999,0.00,,,0.00,,2013-05-22 11:53:00,
2013-05-22 06:02:00,39.0,-99.9,-100.00,North,-999,-999.0,-999.0,-999,0.00,,,0.00,,2013-05-22 12:02:00,
2013-05-22 06:12:00,39.0,-99.9,-100.00,North,-999,-999.0,-999.0,-999,0.00,,,0.00,,2013-05-22 12:12:00,
2013-05-22 06:43:00,39.0,-99.9,-100.00,North,-999,-999.0,-999.0,-999,0.00,,,0.00,,2013-05-22 12:43:00,
2013-05-22 06:52:00,39.0,-99.9,-100.00,North,-999,-999.0,-999.0,-999,0.00,,,0.00,,2013-05-22 12:52:00,
2013-05-22 07:02:00,39.0,-99.9,-100.00,North,-999,-999.0,-999.0,-999,0.00,,,0.00,,2013-05-22 13:02:00,
2013-05-22 07:12:00,39.0,-99.9,-100.00,North,-999,-999.0,-999.0,-999,0.00,,,0.00,,2013-05-22 13:12:00,
2013-05-22 07:42:00,43.0,-99.9,-100.00,North,-999,-999.0,-999.0,-999,0.00,,,0.00,,2013-05-22 13:42:00,
2013-05-22 07:52:00,43.0,-99.9,-100.00,North,-999,-999.0,-999.0,-999,0.00,,,0.00,,2013-05-22 13:52:00,
2013-05-22 08:02:00,43.0,-99.9,-100.00,North,-999,-999.0,-999.0,-999,0.00,,,0.00,,2013-05-22 14:02:00,
2013-05-22 08:11:00,43.0,-99.9,-100.00,North,-999,-999.0,-999.0,-999,0.00,,,0.00,,2013-05-22 14:11:00,
2013-05-22 08:42:00,47.0,-99.9,-100.00,North,-999,-999.0,-999.0,-999,0.00,,,0.00,,2013-05-22 14:42:00,
2013-05-22 08:53:00,47.0,-99.9,-100.00,North,-999,-999.0,-999.0,-999,0.00,,,0.00,,2013-05-22 14:53:00,
2013-05-22 09:02:00,47.0,-99.9,-100.00,North,-999,-999.0,-999.0,-999,0.00,,,0.00,,2013-05-22 15:02:00,
2013-05-22 09:11:00,47.0,-99.9,-100.00,North,-999,-999.0,-999.0,-999,0.00,,,0.00,,2013-05-22 15:11:00,
2013-05-22 09:43:00,55.0,-99.9,-100.00,North,-999,-999.0,-999.0,-999,0.00,,,0.00,,2013-05-22 15:43:00,
2013-05-22 09:53:00,55.0,-99.9,-100.00,North,-999,-999.0,-999.0,-999,0.00,,,0.00,,2013-05-22 15:53:00,
2013-05-22 10:03:00,55.0,-99.9,-100.00,North,-999,-999.0,-999.0,-999,0.00,,,0.00,,2013-05-22 16:03:00,
2013-05-22 10:13:00,55.0,-99.9,-100.00,North,-999,-999.0,-999.0,-999,0.00,,,0.00,,2013-05-22 16:13:00,
2013-05-22 11:42:00,56.0,-99.9,-100.00,North,-999,-999.0,-999.0,-999,0.00,,,0.00,,2013-05-22 17:42:00,
2013-05-22 11:54:00,56.0,-99.9,-100.00,North,-999,-999.0,-999.0,-999,0.00,,,0.00,,2013-05-22 17:54:00,
2013-05-22 12:02:00,56.0,-99.9,-100.00,North,-999,-999.0,-999.0,-999,0.00,,,0.00,,2013-05-22 18:02:00,
2013-05-22 12:14:00,56.0,-99.9,-100.00,North,-999,-999.0,-999.0,-999,0.00,,,0.00,,2013-05-22 18:14:00,
2013-05-22 12:42:00,57.0,-99.9,-100.00,North,-999,-999.0,-999.0,-999,0.00,,,0.00,,2013-05-22 18:42:00,
2013-05-22 12:52:00,57.0,-99.9,-100.00,North,-999,-999.0,-999.0,-999,0.00,,,0.00,,2013-05-22 18:52:00,
2013-05-22 13:02:00,57.0,-99.9,-100.00,North,-999,-999.0,-999.0,-999,0.00,,,0.00,,2013-05-22 19:02:00,
2013-05-22 13:12:00,57.0,-99.9,-100.00,North,-999,-999.0,-999.0,-999,0.00,,,0.00,,2013-05-22 19:12:00,
2013-05-22 13:42:00,58.0,-99.9,-100.00,North,-999,-999.0,-999.0,-999,0.00,,,0.00,,2013-05-22 19:42:00,
2013-05-22 13:52:00,58.0,-99.9,-100.00,North,-999,-999.0,-999.0,-999,0.00,,,0.00,,2013-05-22 19:52:00,
2013-05-22 14:02:00,58.0,-99.9,-100.00,North,-999,-999.0,-999.0,-999,0.00,,,0.00,,2013-05-22 20:02:00,
2013-05-22 14:12:00,58.0,-99.9,-100.00,North,-999,-999.0,-999.0,-999,0.00,,,0.00,,2013-05-22 20:12:00,
2013-05-22 14:42:00,59.0,-99.9,-100.00,North,-999,-999.0,-999.0,-999,0.00,,,0.00,,2013-05-22 20:42:00,
2013-05-22 14:52:00,59.0,-99.9,-100.00,North,-999,-999.0,-999.0,-999,0.00,,,0.00,,2013-05-22 20:52:00,
2013-05-22 15:02:00,59.0,-99.9,-100.00,North,-999,-999.0,-999.0,-999,0.00,,,0.00,,2013-05-22 21:02:00,
2013-05-22 15:12:00,59.0,-99.9,-100.00,North,-999,-999.0,-999.0,-999,0.00,,,0.00,,2013-05-22 21:12:00,
2013-05-22 15:42:00,59.0,-99.9,-100.00,North,-999,-999.0,-999.0,-999,0.00,,,-99.99,,2013-05-22 21:42:00,
2013-05-22 15:53:00,59.0,-99.9,-100.00,North,-999,-999.0,-999.0,-999,0.00,,,-99.99,,2013-05-22 21:53:00,
2013-05-22 16:03:00,59.0,-99.9,-100.00,North,-999,-999.0,-999.0,-999,0.00,,,-99.99,,2013-05-22 22:03:00,
2013-05-22 16:13:00,59.0,-99.9,-100.00,North,-999,-999.0,-999.0,-999,0.00,,,-99.99,,2013-05-22 22:13:00,
2013-05-22 17:42:00,53.0,-99.9,-100.00,North,-999,-999.0,-999.0,-999,0.30,,,0.30,,2013-05-22 23:42:00,
2013-05-22 17:53:00,53.0,-99.9,-100.00,North,-999,-999.0,-999.0,-999,0.30,,,0.30,,2013-05-22 23:53:00,
2013-05-22 18:02:00,53.0,-99.9,-100.00,North,-999,-999.0,-999.0,-999,0.30,,,0.30,,2013-05-23 00:02:00,
2013-05-22 18:42:00,55.0,-99.9,-100.00,North,-999,-999.0,-999.0,-999,0.05,,,0.35,,2013-05-23 00:42:00,
2013-05-22 18:52:00,55.0,-99.9,-100.00,North,-999,-999.0,-999.0,-999,0.05,,,0.35,,2013-05-23 00:52:00,
2013-05-22 19:02:00,55.0,-99.9,-100.00,North,-999,-999.0,-999.0,-999,0.05,,,0.35,,2013-05-23 01:02:00,
2013-05-22 19:11:00,55.0,-99.9,-100.00,North,-999,-999.0,-999.0,-999,0.05,,,0.35,,2013-05-23 01:11:00,
2013-05-22 19:42:00,52.0,-99.9,-100.00,North,-999,-999.0,-999.0,-999,0.04,,,0.39,,2013-05-23 01:42:00,
2013-05-22 19:53:00,52.0,-99.9,-100.00,North,-999,-999.0,-999.0,-999,0.04,,,0.39,,2013-05-23 01:53:00,
2013-05-22 20:02:00,52.0,-99.9,-100.00,North,-999,-999.0,-999.0,-999,0.04,,,0.39,,2013-05-23 02:02:00,
2013-05-22 20:11:00,52.0,-99.9,-100.00,North,-999,-999.0,-999.0,-999,0.04,,,0.39,,2013-05-23 02:11:00,
2013-05-22 21:02:00,51.0,-99.9,-100.00,North,-999,-999.0,-999.0,-999,0.15,,,0.54,,2013-05-23 03:02:00,
2013-05-22 21:12:00,51.0,-99.9,-100.00,North,-999,-999.0,-999.0,-999,0.15,,,0.54,,2013-05-23 03:12:00,
2013-05-22 21:43:00,50.0,-99.9,-100.00,North,-999,-999.0,-999.0,-999,0.28,,,0.82,,2013-05-23 03:43:00,
2013-05-22 21:53:00,50.0,-99.9,-100.00,North,-999,-999.0,-999.0,-999,0.28,,,0.82,,2013-05-23 03:53:00,
2013-05-22 22:03:00,50.0,-99.9,-100.00,North,-999,-999.0,-999.0,-999,0.28,,,0.82,,2013-05-23 04:03:00,
2013-05-22 22:12:00,50.0,-99.9,-100.00,North,-999,-999.0,-999.0,-999,0.28,,,0.82,,2013-05-23 04:12:00,
2013-05-22 22:43:00,50.0,-99.9,-100.00,North,-999,-999.0,-999.0,-999,0.02,,,0.84,,2013-05-23 04:43:00,
2013-05-22 22:52:00,50.0,-99.9,-100.00,North,-999,-999.0,-999.0,-999,0.02,,,0.84,,2013-05-23 04:52:00,
2013-05-22 23:03:00,50.0,-99.9,-100.00,North,-999,-999.0,-999.0,-999,0.02,,,0.84,,2013-05-23 05:03:00,
2013-05-22 23:12:00,50.0,-99.9,-100.00,North,-999,-999.0,-999.0,-999,0.02,,,0.84,,2013-05-23 05:12:00,
2013-05-22 23:43:00,49.0,-99.9,-100.00,North,-999,-999.0,-999.0,-999,0.08,,,0.92,,2013-05-23 05:43:00,
2013-05-22 23:52:00,49.0,-99.9,-100.00,North,-999,-999.0,-999.0,-999,0.08,,,0.92,,2013-05-23 05:52:00,